Location: ????????
(55.6333°N, 37.7000°E)
Time: 07:37:07
(UTC+00:00)

SeaSat 1 - Pass Details

Date: 19 May 2025
Orbit: 738 x 740 km, 108.0° (Epoch: 23 June)

Event Time Altitude Azimuth Distance (km) Brightness Sun altitude
Exits shadow 19:57:10 14° 184° (S) 1,977 4.1 -12.1°
Maximum altitude 20:00:56 37° 247° (WSW) 1,150 3.4 -12.3°
Drops below altitude 10° 20:05:28 10° 314° (NW) 2,261 6.0 -12.5°
Sets 20:07:55 0° 323° (NW) 3,189 7.3 -12.6°
